Miscellaneous Local Product
Issued by NWS North Platte, NE

Home | Current Version | Previous Version | Text Only | Print | Product List | Glossary On
Versions: 1 2 3 4 5 6 7 8 9 10 11 12 13 14 15 16 17 18 19 20 21 22 23 24 25 26 27 28 29 30 31 32 33 34 35 36 37 38 39 40 41 42 43 44 45 46 47 48 49 50
000
AXUS43 KLBF 021910
MISLBF


WESTERN AND NORTH CENTRAL NEBRASKA HOURLY WEATHER ROUNDUP
NATIONAL WEATHER SERVICE NORTH PLATTE NE
200 PM CDT THU JUL 02 2015

***STATIONS NOT REPORTING VARIABLES SUCH AS SKY/WEATHER OR
PRESSURE ARE PROVIDED BY THE NEBRASKA DEPARTMENT OF
ROADS...RAWS...AND APRS NETWORKS...AND ARE NOT UNDER
NATIONAL WEATHER SERVICE QUALITY CONTROL***

...OBSERVATIONS IN AND NEAR THE EASTERN PANHANDLE OF NEBRASKA...

CITY           SKY/WX    TMP DP  RH WIND       PRES   REMARKS
PINE RIDGE     SUNNY     78  57  48 N14G21    30.08F
CHADRON        MOSUNNY   81  60  48 NE10G17   30.08F
ALLIANCE       MOSUNNY   78  59  51 N14G21    30.11F
SIDNEY         MOSUNNY   80  61  52 NE13G21   30.15S
WHITECLAY        N/A     77  58  50 S14         N/A
CRESCENT LAKE    N/A     77  59  53 N13G23      N/A
BIG SPRINGS      N/A     80  62  54 NE7         N/A
$$

...OBSERVATIONS IN NORTH CENTRAL NEBRASKA...

CITY           SKY/WX    TMP DP  RH WIND       PRES   REMARKS
VALENTINE      PTSUNNY   79  59  50 N18G25    30.02F
THEDFORD       MOSUNNY   79  62  55 N13G21    30.04
AINSWORTH      SUNNY     80  58  47 NW17G23   30.01
O`NEILL        PTSUNNY   75  67  75 NE8       29.96
ORD            PTSUNNY   84  62  47 NW14G21   29.93F
BROKEN BOW     PTSUNNY   81  64  56 N12G21    29.99S
VALENTINE NWR    N/A     77  60  54 N13G22      N/A
SPRINGVIEW       N/A     78  63  60 NW8G18      N/A
HALSEY           N/A     78  62  57 NW10G20     N/A
BREWSTER         N/A     86  60  41 S22         N/A
ROSE             N/A     91  74  58 S20         N/A  HX 100
NEWPORT          N/A     76  67  73 SE5         N/A
SARGENT          N/A     82  65  56 CALM        N/A
CHAMBERS         N/A     81  66  59 NW8         N/A
EWING            N/A     74  69  83 E6          N/A
$$

...OBSERVATIONS IN SOUTHWEST NEBRASKA AND FAR NORTHEAST COLORADO...

CITY           SKY/WX    TMP DP  RH WIND       PRES   REMARKS
WRAY           FAIR      85  55  36 N13G26    30.10F
HOLYOKE        FAIR      84  55  37 N14G21    30.11S
IMPERIAL       SUNNY     84  59  42 NW15G22   30.07S
OGALLALA       SUNNY     80  61  51 N21G26    30.07
NORTH PLATTE   PTSUNNY   83  61  47 N14       30.02S
MCCOOK         SUNNY     85  58  39 NW13G21   30.01F
LEXINGTON      SUNNY     83  62  47 N10       30.00
PAXTON           N/A     81  61  50 NW13        N/A
GOTHENBURG       N/A     81  58  44 N12         N/A
CALLAWAY         N/A     81  69  66 NE10        N/A
$$

...NORTH PLATTE AREA...

CITY           SKY/WX    TMP DP  RH WIND       PRES   REMARKS
AIRPORT        PTSUNNY   83  61  47 N14       30.02S
DOWNTOWN         N/A     81  60  49 N8G15       N/A
HILLCREST        N/A     81  58  44 N14         N/A
$$

...SOME WEATHER OBSERVATIONS FROM AROUND THE REGION...

CITY           SKY/WX    TMP DP  RH WIND       PRES   REMARKS
DENVER         MOSUNNY   78  53  41 VRB5      30.21F
LARAMIE        MOSUNNY   74  49  41 SE3       30.31S
CHEYENNE       SUNNY     77  48  35 NE7       30.25S
SCOTTSBLUFF    MOSUNNY   83  55  38 N10       30.12S
RAPID CITY     MOSUNNY   77  61  57 N20       30.08F
PIERRE         MOSUNNY   74  64  71 N8        29.98S
SIOUX FALLS    CLOUDY    71  57  61 SE9       29.99S
OMAHA          LGT RAIN  67  64  90 E5        29.97R FOG
GRAND ISLAND   MOSUNNY   80  65  59 VRB3      29.95F
KANSAS CITY    DRIZZLE   70  67  90 NE6       29.95R
WICHITA        LGT RAIN  77  74  90 NE6       29.88F
HAYS           CLOUDY    72  64  78 SW12      30.00F
LIBERAL        SUNNY     88  63  42 NE15      30.02F
GOODLAND       MOSUNNY   81  56  42 N18G26    30.09R
$$



USA.gov is the U.S. government's official web portal to all federal, state and local government web resources and services.